Location: Big Prairie
(40.6673°N, 82.0952°W)
Time: 04:33:04
(UTC+00:00)

Meteor 1-26 Rocket - Pass Details

Date: 06 July 2022
Orbit: 810 x 924 km, 81.3° (Epoch: 13 August)

Event Time Altitude Azimuth Distance (km) Brightness Sun altitude
Rises 07:14:12 0° 339° (NNW) 3,506 8.1 -22.4°
Reaches altitude 10° 07:16:53 10° 329° (NNW) 2,578 7.1 -22.2°
Maximum altitude 07:21:56 30° 271° (W) 1,565 5.3 -21.8°
Enters shadow 07:22:45 29° 256° (WSW) 1,603 5.3 -21.7°
